Location: Arclight Observatory
(36.5667°N, 87.3333°W)
Time: 06:09:16
(UTC-05:00)

Daily predictions for brighter satellites

Satellite Brightness Start Highest point End
(mag) Time Altitude Azimuth Time Altitude Azimuth Time Altitude Azimuth
Cosmos 2263 Rocket 2.5 20:25:13 10° SSW 20:30:53 78° WNW 20:36:34 10° NNE
FENGYUN 3A 3.8 20:29:28 10° SSE 20:34:53 87° WSW 20:40:18 10° NNW
CENTAUR R/B 3.6 20:27:53 10° NNW 20:35:23 46° NE 20:43:17 10° ESE
SL-8 R/B 3.7 20:34:33 10° SW 20:39:18 61° SE 20:44:03 10° ENE
NOSS 2-2 (D) 3.9 20:38:05 10° S 20:41:50 38° ESE 20:45:58 10° NE
In-Cosmos 22 Rocket 4.3 20:37:15 10° S 20:43:05 85° E 20:48:55 10° N
Coronas F rocket 2.2 20:41:27 10° SSE 20:43:46 27° E 20:46:06 10° NNE
Cosmos 2184 Rocket 4.2 20:39:41 10° SSE 20:45:32 48° E 20:51:25 10° NNE
deb Chang Zheng 4 4.1 20:45:28 10° NNE 20:49:37 39° E 20:53:45 10° S
YAOGAN 11 4.2 20:47:04 10° SSE 20:51:30 73° ENE 20:56:04 10° N
Cosmos 1624 Rocket 4.1 20:51:10 10° S 20:56:16 55° ESE 21:01:26 10° NNE
NOSS 2-2 (C) 3.5 20:52:30 10° SSW 20:56:27 57° ESE 21:00:51 10° NE
Cosmos 1892 2.7 20:54:15 10° S 20:58:00 63° E 21:01:49 10° NNE
H-2A R/B 3.9 20:54:37 10° S 20:58:07 41° W 21:01:39 10° NNW
Envisat 3.4 20:53:57 11° SE 20:58:36 45° ENE 21:03:25 10° N
Meteor 2-10 Rocket 3.9 20:53:18 10° N 20:59:04 59° E 21:04:40 10° SSE
USA 186 3.3 20:56:50 10° SSW 20:59:31 33° W 21:02:24 10° NNW
Cosmos 2181 Rocket 4.4 20:53:28 10° N 20:59:54 71° W 21:06:13 10° S
Cosmos 1733 Rocket 3.2 20:57:57 10° S 21:02:16 55° E 21:06:35 10° NNE
Cosmos 724 4.4 20:57:01 10° NNW 21:03:13 89° ENE 21:08:56 13° SSE
ERBS 3.7 21:11:46 10° NNW 21:14:51 28° NE 21:16:36 19° E
NOSS 2-2 (E) 3.6 21:11:34 10° SW 21:15:39 79° WNW 21:20:20 10° NNE
Cosmos 407 Rocket 4.3 21:14:14 10° N 21:19:03 35° ENE 21:21:52 21° ESE
Cosmos 1452 Rocket 4.2 21:16:33 15° SSE 21:20:08 33° E 21:24:50 10° NE
Cosmos 2074 Rocket 4.1 21:14:47 10° S 21:21:05 81° W 21:27:23 10° N
Cosmos 1238 Rocket 4.2 21:19:53 10° NE 21:21:59 17° ENE 21:21:59 17° ENE
SPOT 5 3.2 21:19:21 19° SE 21:22:58 57° ENE 21:28:12 10° N
Nimbus 7 Rocket 4.4 21:18:50 10° NNE 21:24:47 79° ESE 21:30:45 10° SSW
COSMOS 2406 3.2 21:21:33 10° NNW 21:27:19 71° ENE 21:30:59 23° SSE
H-2A R/B 2.0 21:24:05 18° SSE 21:27:22 90° SSW 21:31:41 10° NNW
ERS-1 Rocket 3.5 21:22:28 10° S 21:27:26 60° WSW 21:32:25 10° NNW
Cosmos 1356 Rocket 4.3 21:24:39 10° SSW 21:28:44 52° W 21:32:55 10° N
EO 1 Delta rocket 4.2 21:22:23 10° NNE 21:28:50 77° E 21:33:58 10° S
Cosmos 1610 Rocket 4.4 21:23:20 10° S 21:29:27 80° E 21:35:40 10° N
Cosmos 1190 Rocket 4.2 21:24:38 10° N 21:29:45 55° ENE 21:32:30 26° SE
PSLV R/B 3.6 21:29:27 37° E 21:29:53 41° ENE 21:32:42 10° N
MetOp-B 4.3 21:28:34 23° SE 21:31:48 56° ENE 21:37:01 10° N
Meteor 1-10 Rocket 4.2 21:26:51 10° N 21:32:43 87° E 21:37:11 17° S
Cosmos 1862 3.7 21:33:23 31° SE 21:34:46 44° E 21:38:39 10° NNE
Nadezhda 3 Rocket 4.2 21:31:56 10° N 21:38:10 55° E 21:41:46 25° SSE
Terra 3.7 21:37:59 14° E 21:38:59 15° ENE 21:41:35 10° NNE
ARGOS 3.8 21:38:34 27° ESE 21:40:49 40° ENE 21:45:47 10° N
Okean 2 Rocket 3.9 21:42:45 31° ESE 21:43:13 32° E 21:47:09 10° NNE
ATLAS 5 CENTAUR R/B 2.4 21:37:14 10° NNW 21:43:21 84° ENE 21:46:55 29° SE
PSLV R/B 3.7 21:42:16 10° WNW 21:45:42 59° NNE 21:46:43 39° ENE
Cosmos 2278 Rocket 2.5 21:43:32 25° SSE 21:46:20 44° ESE 21:51:42 10° NE
Sich 1 Rocket 3.7 21:42:39 14° S 21:46:34 80° W 21:51:11 10° N
Cosmos 1844 3.6 21:42:57 10° SSW 21:48:40 74° ESE 21:54:27 10° NNE
Abrixas rocket 2.9 21:46:14 10° WNW 21:49:29 42° SW 21:49:51 40° SSW
Cosmos 2341 Rocket 4.0 21:46:29 21° S 21:50:46 65° E 21:56:59 10° NNE
USA 234 3.2 21:45:02 10° NE 21:51:28 59° SE 21:57:52 10° SSW
CZ-4B R/B 3.4 21:47:46 10° NNE 21:52:43 63° ESE 21:54:54 32° S
Cosmos 1825 2.1 21:54:31 55° SSE 21:55:10 69° E 21:58:59 10° NNE
Cosmos 676 Rocket 4.1 21:54:19 10° N 21:59:28 61° ENE 22:01:02 42° SE
Cosmos 1674 Rocket 4.3 21:55:11 10° NNW 21:59:31 51° W 22:02:00 23° SSW
Cosmos 1844 Rocket 3.1 21:54:19 10° SSW 21:59:55 65° WNW 22:05:33 10° NNE
Cosmos 1184 Rocket 3.3 22:04:01 49° NE 22:04:01 49° NE 22:06:39 10° NNE
Meteor 1-27 Rocket 3.6 21:58:35 10° N 22:04:11 86° W 22:06:42 34° S
Cosmos 1782 4.0 22:02:54 10° NNW 22:06:40 38° W 22:08:36 23° SW
Cosmos 1954 Rocket 4.2 22:02:04 10° N 22:07:11 55° ENE 22:08:21 45° ESE
Cosmos 1174 4.5 22:04:24 10° NNW 22:06:47 32° NNE 22:06:47 32° NNE
Cosmos 2082 Rocket 3.9 22:04:04 10° N 22:08:03 19° NE 22:09:37 17° ENE
Cosmos 1782 Rocket 3.4 22:07:22 51° S 22:08:26 80° E 22:12:55 10° N
Atlas Centaur 2 2.9 22:10:29 10° WSW 22:12:00 21° SW 22:12:00 21° SW
COSMOS 2487 3.5 22:10:55 10° N 22:13:44 37° NE 22:13:44 37° NE
YAOGAN 6 3.2 22:14:37 44° WSW 22:14:58 46° W 22:18:22 10° NNW
SL-27 R/B 3.6 22:12:28 10° NW 22:15:52 37° WSW 22:16:21 35° WSW
Cosmos 1408 3.0 22:15:26 51° WSW 22:16:00 59° W 22:19:38 10° N
Cosmos 2297 4.2 22:16:56 39° E 22:16:56 39° E 22:21:54 10° NE
SL-8 Rocket 4.0 22:17:09 43° SSE 22:19:10 64° E 22:25:21 10° NNE
CZ-4 R/B 3.6 22:15:46 10° NNE 22:20:28 90° E 22:21:34 53° SSW
Meteor 2-13 Rocket 4.3 22:19:37 36° S 22:22:19 85° E 22:28:30 10° N
SL-08 RB Rocket 3.6 22:24:57 70° S 22:25:29 88° WSW 22:30:08 10° NNW
CENTAUR R/B 3.9 22:18:43 10° NW 22:26:10 43° WSW 22:30:41 24° SSW
Cosmos 1975 Rocket 2.9 22:22:55 10° N 22:27:15 85° W 22:27:24 82° SSW
CARTOSAT-1 4.2 22:27:44 43° ENE 22:27:44 43° ENE 22:31:27 10° N
Cosmos 1606 4.0 22:25:06 10° NNW 22:28:42 34° W 22:29:28 31° WSW
NOAA 11 4.3 22:28:50 47° S 22:30:24 72° WSW 22:35:55 10° NNW
FALCON 9 R/B 4.4 22:01:04 10° WNW 22:32:39 44° SW 22:37:44 30° S
Okean 3 3.8 22:29:42 10° NNW 22:33:55 56° W 22:34:13 55° WSW
H-2A R/B 2.1 22:36:42 64° ESE 22:37:18 70° ENE 22:42:40 10° N
Cosmos 1242 Rocket 3.5 22:34:49 10° N 22:37:28 46° N 22:37:28 46° N
Cosmos 1023 Rocket 4.3 22:40:30 10° NNW 22:45:37 83° ENE 22:45:41 83° E
Cosmos 1420 Rocket 4.2 22:46:17 50° SW 22:47:33 70° WNW 22:52:47 10° NNE
Cosmos 2151 Rocket 4.0 22:49:00 57° NNE 22:49:00 57° NNE 22:52:41 10° N
Meteor 2-8 Rocket 4.5 22:45:26 10° N 22:51:32 60° E 22:51:55 59° E
Cosmos 864 Rocket 4.3 22:51:03 68° SSE 22:51:49 79° E 22:57:59 10° N
Meteor 1-25 Rocket 4.3 22:56:05 66° E 22:56:05 66° E 23:01:46 10° NNE
CZ-3C R/B 4.2 22:48:36 10° WSW 22:55:50 18° SSW 22:55:50 18° SSW
Cosmos 2366 rocket 3.9 22:56:08 63° S 22:57:15 88° W 23:03:36 10° N
Cosmos 489 Rocket 4.5 22:51:59 10° NNW 22:58:10 70° WSW 22:59:03 61° SSW
Landsat 7 4.3 23:00:35 54° W 23:00:35 54° W 23:05:09 10° NNW
Meteor 1-14 Rocket 4.5 23:00:06 53° SW 23:01:13 65° W 23:06:50 10° N
Meteor 1-18 Rocket 4.2 22:58:13 10° N 23:04:07 72° E 23:04:09 72° E
Spot 4 4.2 23:13:28 64° NNW 23:13:28 64° NNW 23:17:38 10° NNW
ASTEX 1 3.9 23:08:32 10° N 23:12:25 55° NNE 23:12:25 55° NNE
Terra 2.5 23:16:52 49° WNW 23:16:52 49° WNW 23:20:54 10° NNW
Cosmos 614 Rocket 4.2 23:12:03 10° NNW 23:16:24 63° NW 23:16:24 63° NW
Cosmos 1140 Rocket 4.2 23:13:05 10° NNW 23:17:37 46° W 23:17:37 46° W
ATLAS 5 CENTAUR R/B 4.5 23:24:08 10° WNW 23:27:29 15° WSW 23:28:29 14° WSW
BREEZE-M DEB (TANK) 4.5 23:06:57 10° WNW 23:27:34 77° SW 23:28:32 67° SSE
BREEZE-M DEB (TANK) 4.0 23:21:43 10° WNW 23:26:27 36° WNW 23:26:27 36° WNW
Cosmos 2278 Rocket 4.2 23:26:03 10° WSW 23:30:35 24° WNW 23:35:09 10° N
Meteor 1-11 Rocket 4.5 23:33:06 44° NE 23:33:06 44° NE 23:37:29 10° NNE
USA 234 4.5 23:28:17 10° NNE 23:34:15 40° NW 23:40:12 10° W
Cosmos 1833 Rocket 3.0 23:34:16 10° NNW 23:39:00 64° N 23:39:00 64° N
Cosmos 1727 Rocket 4.4 23:34:02 10° NNW 23:39:59 52° W 23:40:11 52° W
Cosmos 2082 Rocket 2.8 23:46:56 10° NNW 23:51:28 50° WNW 23:51:28 50° WNW
